Location: Unspecified
(50.0000°N, 15.0000°E)
Time: 02:05:55
(UTC+01:00)

X-37B - Pass Details

Date: 09 December 2021
Orbit: 334 x 337 km, 45.0° (Epoch: 11 January)

Event Time Altitude Azimuth Distance (km) Brightness Sun altitude
Rises 17:20:38 0° 218° (SW) 2,096 5.4 -12.5°
Reaches altitude 10° 17:23:15 10° 191° (S) 1,262 3.6 -12.9°
Maximum altitude 17:24:50 14° 157° (SSE) 1,061 2.8 -13.1°
Enters shadow 17:26:00 12° 130° (SE) 1,175 2.7 -13.3°
